| time (UTC) | temp C | wind direction | speed KPH | gust KPH | rain 1hr cm | rain 24hr cm | rain mn cm | humidity % | barometer mb |
| 20260510190146 | 20 | 90 | 3.2 | 6.4 | 0.00 | 0.00 | 0.00 | 56 | 1014.4 |
| 20260510185136 | 20 | 105 | 1.6 | 4.8 | 0.00 | 0.00 | 0.00 | 57 | 1014.6 |
| 20260510184116 | 20 | 107 | 0.0 | 1.6 | 0.00 | 0.00 | 0.00 | 54 | 1014.8 |
| 20260510183119 | 20 | 88 | 1.6 | 4.8 | 0.00 | 0.00 | 0.00 | 54 | 1014.7 |
| 20260510182124 | 20 | 89 | 1.6 | 6.4 | 0.00 | 0.00 | 0.00 | 55 | 1014.6 |
| 20260510181124 | 20 | 83 | 3.2 | 6.4 | 0.00 | 0.00 | 0.00 | 55 | 1014.3 |
| 20260510180115 | 20 | 57 | 3.2 | 4.8 | 0.00 | 0.00 | 0.00 | 57 | 1014.6 |
| 20260510175117 | 20 | 96 | 1.6 | 3.2 | 0.00 | 0.00 | 0.00 | 61 | 1014.7 |
| 20260510174117 | 19 | 104 | 1.6 | 6.4 | 0.00 | 0.00 | 0.00 | 64 | 1014.7 |
| 20260510173138 | 20 | 61 | 4.8 | 9.7 | 0.00 | 0.00 | 0.00 | 63 | 1014.9 |
| 20260510172123 | 20 | 101 | 1.6 | 3.2 | 0.00 | 0.00 | 0.00 | 61 | 1014.6 |
| 20260510171142 | 20 | 97 | 1.6 | 3.2 | 0.00 | 0.00 | 0.00 | 64 | 1014.8 |
| 20260510170116 | 20 | 139 | 3.2 | 4.8 | 0.00 | 0.00 | 0.00 | 62 | 1014.7 |
| 20260510165138 | 19 | 101 | 0.0 | 1.6 | 0.00 | 0.00 | 0.00 | 68 | 1014.6 |
| 20260510164138 | 18 | 85 | 1.6 | 3.2 | 0.00 | 0.00 | 0.00 | 70 | 1015.1 |
| 20260510163124 | 18 | 120 | 3.2 | 3.2 | 0.00 | 0.00 | 0.00 | 71 | 1015.1 |
| 20260510162122 | 18 | 97 | 1.6 | 4.8 | 0.00 | 0.00 | 0.00 | 68 | 1015.1 |
| 20260510161137 | 18 | 99 | 3.2 | 4.8 | 0.00 | 0.00 | 0.00 | 67 | 1015.1 |
| 20260510160123 | 17 | 102 | 0.0 | 3.2 | 0.00 | 0.00 | 0.00 | 70 | 1015.2 |
| 20260510155118 | 17 | 51 | 4.8 | 9.7 | 0.00 | 0.00 | 0.00 | 69 | 1015.3 |
| 20260510154119 | 18 | 100 | 1.6 | 4.8 | 0.00 | 0.00 | 0.00 | 72 | 1015.4 |
| 20260510153126 | 17 | 91 | 4.8 | 9.7 | 0.00 | 0.00 | 0.00 | 75 | 1015.5 |
| 20260510152121 | 16 | 108 | 0.0 | 3.2 | 0.00 | 0.00 | 0.00 | 78 | 1015.4 |
| 20260510151158 | 15 | 104 | 1.6 | 3.2 | 0.00 | 0.00 | 0.00 | 80 | 1015.7 |
| 20260510150118 | 15 | 100 | 1.6 | 3.2 | 0.00 | 0.00 | 0.00 | 80 | 1015.6 |
| 20260510145140 | 15 | 0.0 | 1.6 | 0.00 | 0.00 | 0.00 | 81 | 1015.4 | |
| 20260510144120 | 15 | 107 | 0.0 | 4.8 | 0.00 | 0.00 | 0.00 | 81 | 1015.3 |
| 20260510143120 | 15 | 84 | 3.2 | 6.4 | 0.00 | 0.00 | 0.00 | 81 | 1015.5 |
| 20260510142129 | 15 | 82 | 3.2 | 4.8 | 0.00 | 0.00 | 0.00 | 83 | 1015.7 |
| 20260510141118 | 14 | 100 | 1.6 | 4.8 | 0.00 | 0.00 | 0.00 | 84 | 1015.5 |
| 20260510140119 | 14 | 96 | 3.2 | 4.8 | 0.00 | 0.00 | 0.00 | 82 | 1015.5 |
| 20260510135120 | 13 | 114 | 0.0 | 1.6 | 0.00 | 0.00 | 0.00 | 90 | 1015.4 |
| 20260510134122 | 12 | 105 | 1.6 | 3.2 | 0.00 | 0.00 | 0.00 | 90 | 1015.2 |
| 20260510133123 | 12 | 101 | 1.6 | 3.2 | 0.00 | 0.00 | 0.00 | 91 | 1015.4 |
| 20260510132149 | 12 | 96 | 1.6 | 3.2 | 0.00 | 0.00 | 0.00 | 94 | 1015.4 |
| 20260510131120 | 11 | 0.0 | 0.0 | 0.00 | 0.00 | 0.00 | 96 | 1015.4 | |
| 20260510130120 | 11 | 106 | 0.0 | 1.6 | 0.00 | 0.00 | 0.00 | 96 | 1015.4 |
| 20260510125122 | 11 | 0.0 | 1.6 | 0.00 | 0.00 | 0.00 | 97 | 1015.3 | |
| 20260510124117 | 11 | 0.0 | 0.0 | 0.00 | 0.00 | 0.00 | 98 | 1015.1 | |
| 20260510123124 | 11 | 0.0 | 1.6 | 0.00 | 0.00 | 0.00 | 98 | 1015.1 | |
| 20260510122131 | 11 | 0.0 | 0.0 | 0.00 | 0.00 | 0.00 | 98 | 1015.0 | |
| 20260510121121 | 10 | 0.0 | 0.0 | 0.00 | 0.00 | 0.00 | 98 | 1015.1 | |
| 20260510120122 | 10 | 0.0 | 0.0 | 0.00 | 0.00 | 0.00 | 99 | 1015.0 | |
| 20260510115122 | 10 | 0.0 | 0.0 | 0.00 | 0.00 | 0.00 | 99 | 1015.0 | |
| 20260510114144 | 10 | 0.0 | 0.0 | 0.00 | 0.00 | 0.00 | 99 | 1015.0 | |
| 20260510113125 | 10 | 0.0 | 0.0 | 0.00 | 0.00 | 0.00 | 99 | 1014.9 | |
| 20260510112132 | 10 | 0.0 | 1.6 | 0.00 | 0.00 | 0.00 | 99 | 1014.8 | |
| 20260510111142 | 10 | 107 | 0.0 | 1.6 | 0.00 | 0.00 | 0.00 | 99 | 1014.6 |
| 20260510110122 | 10 | 0.0 | 0.0 | 0.00 | 0.00 | 0.00 | 99 | 1014.8 | |
| 20260510105123 | 10 | 0.0 | 0.0 | 0.00 | 0.00 | 0.00 | 99 | 1014.6 | |
| 20260510104124 | 10 | 0.0 | 0.0 | 0.00 | 0.00 | 0.00 | 99 | 1014.6 | |
| 20260510103206 | 10 | 0.0 | 0.0 | 0.00 | 0.00 | 0.00 | 99 | 1014.3 | |
| 20260510102116 | 10 | 0.0 | 0.0 | 0.00 | 0.00 | 0.00 | 99 | 1014.3 | |
| 20260510101120 | 10 | 0.0 | 0.0 | 0.00 | 0.00 | 0.00 | 99 | 1014.3 | |
| 20260510100144 | 9 | 0.0 | 0.0 | 0.00 | 0.00 | 0.00 | 99 | 1014.1 | |
| 20260510095124 | 9 | 96 | 1.6 | 1.6 | 0.00 | 0.00 | 0.00 | 99 | 1013.9 |
| 20260510094119 | 9 | 111 | 1.6 | 1.6 | 0.00 | 0.00 | 0.00 | 99 | 1013.8 |
| 20260510093116 | 9 | 0.0 | 0.0 | 0.00 | 0.00 | 0.00 | 99 | 1014.1 | |
| 20260510092117 | 9 | 109 | 0.0 | 1.6 | 0.00 | 0.00 | 0.00 | 99 | 1013.9 |
| 20260510091123 | 9 | 0.0 | 3.2 | 0.00 | 0.00 | 0.00 | 99 | 1014.1 | |
| 20260510090116 | 10 | 104 | 1.6 | 1.6 | 0.00 | 0.00 | 0.00 | 99 | 1014.1 |
| 20260510085122 | 10 | 0.0 | 1.6 | 0.00 | 0.00 | 0.00 | 99 | 1014.2 | |
| 20260510084117 | 9 | 104 | 0.0 | 1.6 | 0.00 | 0.00 | 0.00 | 99 | 1014.1 |
| 20260510083137 | 9 | 0.0 | 0.0 | 0.00 | 0.00 | 0.00 | 99 | 1014.0 | |
| 20260510082118 | 9 | 0.0 | 0.0 | 0.00 | 0.00 | 0.00 | 99 | 1013.9 | |
| 20260510081124 | 9 | 0.0 | 1.6 | 0.00 | 0.00 | 0.00 | 99 | 1014.0 | |
| 20260510080125 | 9 | 0.0 | 0.0 | 0.00 | 0.00 | 0.00 | 99 | 1014.3 | |
| 20260510075138 | 9 | 0.0 | 1.6 | 0.00 | 0.00 | 0.00 | 99 | 1014.1 | |
| 20260510074124 | 9 | 0.0 | 0.0 | 0.00 | 0.00 | 0.00 | 99 | 1014.2 | |
| 20260510073118 | 9 | 109 | 0.0 | 1.6 | 0.00 | 0.00 | 0.00 | 99 | 1013.8 |
| 20260510072119 | 9 | 104 | 1.6 | 1.6 | 0.00 | 0.00 | 0.00 | 99 | 1013.9 |
| 20260510071125 | 9 | 0.0 | 0.0 | 0.00 | 0.00 | 0.00 | 99 | 1013.9 | |
| 20260510070116 | 10 | 105 | 1.6 | 1.6 | 0.00 | 0.00 | 0.00 | 99 | 1013.9 |
| 20260510065124 | 10 | 101 | 0.0 | 1.6 | 0.00 | 0.00 | 0.00 | 99 | 1013.8 |
| 20260510064119 | 10 | 0.0 | 0.0 | 0.00 | 0.00 | 0.00 | 99 | 1014.0 | |
| 20260510063119 | 10 | 96 | 3.2 | 3.2 | 0.00 | 0.00 | 0.00 | 99 | 1013.7 |
| 20260510062120 | 10 | 0.0 | 0.0 | 0.00 | 0.00 | 0.00 | 99 | 1013.8 | |
| 20260510061121 | 10 | 107 | 1.6 | 1.6 | 0.00 | 0.00 | 0.00 | 99 | 1013.7 |
| 20260510060119 | 10 | 0.0 | 1.6 | 0.00 | 0.00 | 0.00 | 99 | 1013.6 | |
| 20260510055124 | 10 | 0.0 | 0.0 | 0.00 | 0.00 | 0.00 | 99 | 1013.7 | |
| 20260510054124 | 10 | 0.0 | 0.0 | 0.00 | 0.00 | 0.00 | 99 | 1013.7 | |
| 20260510053120 | 10 | 0.0 | 0.0 | 0.00 | 0.00 | 0.00 | 99 | 1013.7 | |
| 20260510052121 | 10 | 0.0 | 0.0 | 0.00 | 0.00 | 0.00 | 99 | 1013.9 | |
| 20260510051136 | 10 | 0.0 | 0.0 | 0.00 | 0.00 | 0.00 | 99 | 1013.8 | |
| 20260510050117 | 10 | 0.0 | 0.0 | 0.00 | 0.00 | 0.00 | 99 | 1013.8 | |
| 20260510045117 | 10 | 0.0 | 0.0 | 0.00 | 0.00 | 0.00 | 99 | 1013.9 | |
| 20260510044120 | 10 | 113 | 0.0 | 1.6 | 0.00 | 0.00 | 0.00 | 98 | 1013.8 |
| 20260510043141 | 10 | 0.0 | 0.0 | 0.00 | 0.00 | 0.00 | 98 | 1013.7 | |
| 20260510042122 | 10 | 0.0 | 0.0 | 0.00 | 0.00 | 0.00 | 98 | 1013.5 | |
| 20260510041117 | 10 | 0.0 | 0.0 | 0.00 | 0.00 | 0.00 | 98 | 1013.7 | |
| 20260510040116 | 10 | 0.0 | 0.0 | 0.00 | 0.00 | 0.00 | 98 | 1013.7 | |
| 20260510035140 | 10 | 0.0 | 0.0 | 0.00 | 0.00 | 0.00 | 98 | 1014.0 | |
| 20260510034121 | 10 | 0.0 | 0.0 | 0.00 | 0.00 | 0.00 | 98 | 1013.8 | |
| 20260510033122 | 10 | 105 | 1.6 | 1.6 | 0.00 | 0.00 | 0.00 | 98 | 1013.9 |
| 20260510032123 | 10 | 0.0 | 1.6 | 0.00 | 0.00 | 0.00 | 98 | 1013.8 | |
| 20260510031124 | 10 | 0.0 | 3.2 | 0.00 | 0.00 | 0.00 | 98 | 1014.1 | |
| 20260510030143 | 10 | 96 | 1.6 | 3.2 | 0.00 | 0.00 | 0.00 | 98 | 1013.8 |
| 20260510025121 | 10 | 0.0 | 1.6 | 0.00 | 0.00 | 0.00 | 98 | 1013.6 | |
| 20260510024142 | 10 | 108 | 0.0 | 1.6 | 0.00 | 0.00 | 0.00 | 98 | 1013.6 |
| 20260510023124 | 10 | 108 | 0.0 | 3.2 | 0.00 | 0.00 | 0.00 | 98 | 1013.6 |
| 20260510022115 | 10 | 104 | 1.6 | 3.2 | 0.00 | 0.00 | 0.00 | 98 | 1013.8 |
| 20260510021125 | 10 | 101 | 1.6 | 1.6 | 0.00 | 0.00 | 0.00 | 98 | 1013.7 |
| 20260510020126 | 10 | 110 | 0.0 | 1.6 | 0.00 | 0.00 | 0.00 | 98 | 1014.0 |
| 20260510015122 | 10 | 0.0 | 0.0 | 0.00 | 0.00 | 0.00 | 98 | 1014.1 | |
| 20260510014143 | 10 | 0.0 | 1.6 | 0.00 | 0.00 | 0.00 | 98 | 1014.0 | |
| 20260510013125 | 10 | 0.0 | 0.0 | 0.00 | 0.00 | 0.00 | 98 | 1014.1 | |
| 20260510012146 | 10 | 105 | 0.0 | 1.6 | 0.00 | 0.00 | 0.00 | 98 | 1013.9 |
| 20260510011118 | 10 | 0.0 | 0.0 | 0.00 | 0.00 | 0.00 | 98 | 1013.7 | |
| 20260510010122 | 10 | 0.0 | 1.6 | 0.00 | 0.00 | 0.00 | 98 | 1013.7 | |
| 20260510005144 | 10 | 107 | 1.6 | 1.6 | 0.00 | 0.00 | 0.00 | 98 | 1013.4 |
| 20260510004124 | 10 | 0.0 | 1.6 | 0.00 | 0.00 | 0.00 | 98 | 1013.4 | |
| 20260510003116 | 10 | 111 | 0.0 | 1.6 | 0.00 | 0.00 | 0.00 | 98 | 1013.4 |
| 20260510002143 | 10 | 101 | 1.6 | 3.2 | 0.00 | 0.00 | 0.00 | 98 | 1013.2 |
| 20260510001118 | 10 | 112 | 0.0 | 1.6 | 0.00 | 0.00 | 0.00 | 98 | 1013.1 |
| 20260510000123 | 10 | 110 | 0.0 | 1.6 | 0.00 | 0.00 | 0.00 | 98 | 1013.0 |
| 20260509235124 | 10 | 97 | 1.6 | 3.2 | 0.00 | 0.00 | 0.00 | 98 | 1013.1 |
| 20260509234125 | 10 | 51 | 3.2 | 4.8 | 0.00 | 0.00 | 0.00 | 97 | 1013.0 |
| 20260509233122 | 10 | 104 | 1.6 | 3.2 | 0.00 | 0.00 | 0.00 | 97 | 1013.2 |
| 20260509232117 | 10 | 82 | 1.6 | 3.2 | 0.00 | 0.00 | 0.00 | 97 | 1013.1 |
| 20260509231116 | 10 | 108 | 0.0 | 1.6 | 0.00 | 0.00 | 0.00 | 97 | 1013.4 |
| 20260509230124 | 10 | 108 | 0.0 | 4.8 | 0.00 | 0.00 | 0.00 | 97 | 1013.5 |
| 20260509225125 | 10 | 99 | 1.6 | 3.2 | 0.00 | 0.00 | 0.00 | 97 | 1013.5 |
| 20260509224121 | 10 | 108 | 1.6 | 3.2 | 0.00 | 0.00 | 0.00 | 97 | 1013.5 |
| 20260509223115 | 10 | 106 | 1.6 | 1.6 | 0.00 | 0.00 | 0.00 | 97 | 1013.7 |
| 20260509222115 | 10 | 101 | 0.0 | 1.6 | 0.00 | 0.00 | 0.00 | 97 | 1013.7 |
| 20260509221115 | 10 | 102 | 1.6 | 3.2 | 0.00 | 0.00 | 0.00 | 97 | 1013.7 |
| 20260509220125 | 10 | 103 | 0.0 | 1.6 | 0.00 | 0.00 | 0.00 | 96 | 1013.7 |
| 20260509215126 | 11 | 106 | 0.0 | 1.6 | 0.00 | 0.00 | 0.00 | 96 | 1013.7 |
| 20260509214117 | 11 | 0.0 | 3.2 | 0.00 | 0.00 | 0.00 | 96 | 1013.7 | |
| 20260509213143 | 11 | 0.0 | 1.6 | 0.00 | 0.00 | 0.00 | 96 | 1013.5 | |
| 20260509212117 | 11 | 108 | 1.6 | 1.6 | 0.00 | 0.00 | 0.00 | 96 | 1013.6 |
| 20260509211118 | 11 | 0.0 | 0.0 | 0.00 | 0.00 | 0.00 | 96 | 1013.8 | |
| 20260509210126 | 11 | 0.0 | 0.0 | 0.00 | 0.00 | 0.00 | 96 | 1013.7 | |
| 20260509205116 | 11 | 0.0 | 1.6 | 0.00 | 0.00 | 0.00 | 96 | 1013.8 | |
| 20260509204137 | 11 | 0.0 | 0.0 | 0.00 | 0.00 | 0.00 | 96 | 1014.1 | |
| 20260509203121 | 11 | 0.0 | 0.0 | 0.00 | 0.00 | 0.00 | 96 | 1013.9 | |
| 20260509202118 | 11 | 0.0 | 0.0 | 0.00 | 0.00 | 0.00 | 95 | 1014.0 | |
| 20260509201119 | 11 | 0.0 | 0.0 | 0.00 | 0.00 | 0.00 | 95 | 1014.2 | |
| 20260509200127 | 11 | 0.0 | 0.0 | 0.00 | 0.00 | 0.00 | 95 | 1014.1 | |
| 20260509195117 | 11 | 0.0 | 0.0 | 0.00 | 0.00 | 0.00 | 94 | 1014.1 | |
| 20260509194124 | 11 | 0.0 | 0.0 | 0.00 | 0.00 | 0.00 | 94 | 1014.2 | |
| 20260509193119 | 11 | 0.0 | 0.0 | 0.00 | 0.00 | 0.00 | 93 | 1014.2 | |
| 20260509192139 | 11 | 0.0 | 0.0 | 0.00 | 0.00 | 0.00 | 93 | 1014.4 | |
| 20260509191120 | 11 | 0.0 | 0.0 | 0.00 | 0.00 | 0.00 | 92 | 1014.1 |